User: anonymous   Login
Location: Unspecified
(0.0000°N, 0.0000°E)
Time: 04:11:20
(UTC+00:00)
Language:

Metsat - Orbit

View from above orbital plane
View from above orbital plane
View from above satellite
View from above satellite

Ground track
Ground track

The orbit data is extracted from the following two-line orbital elements,

1 26382U 00032A   18022.24601833 +.00000118 +00000-0 +00000-0 0  9996
2 26382 010.2035 038.4533 0007203 251.7256 127.8611 01.00087367064222
Epoch (UTC): 22 January 2018 05:54:15
Eccentricity: 0.0007203
inclination: 10.2035°
perigee height: 35807 km
apogee height: 35868 km
right ascension of ascending node: 38.4533°
argument of perigee: 251.7256°
revolutions per day: 1.00087367
mean anomaly at epoch: 127.8611°
orbit number at epoch: 6422

The dashed part of the orbit path shows where the satellite is in the earth's shadow,  

DLR